Location: Allentsteig
(48.6833°N, 15.3167°E)
Time: 08:11:04
(UTC+00:00)

Cosmos 2298 Rocket - Pass Details

Date: 20 January 2021
Orbit: 775 x 784 km, 74.0° (Epoch: 24 February)

Event Time Altitude Azimuth Distance (km) Brightness Sun altitude
Exits shadow 03:46:31 - 358° (N) 2,502 6.6 -28.6°
Reaches altitude 10° 03:47:04 10° 2° (N) 2,353 6.5 -28.5°
Maximum altitude 03:50:51 19° 47° (NE) 1,794 6.4 -27.9°
Drops below altitude 10° 03:54:37 10° 93° (E) 2,345 7.5 -27.2°
Sets 03:57:41 0° 110° (ESE) 3,270 8.4 -26.7°
